Ketchikan, AK

4:51 PM AKDT on September 24, 2018 (GMT -0800)
Ketchikan International

Weather History for PAKT - July, 2018

Change the Weather History Date:

Monday, July 23, 2018

  Actual Average Record
Temperature  
Mean Temperature 63 °F -  
Max Temperature 73 °F 65 °F 82 °F (1966)
Min Temperature 53 °F 51 °F 42 °F (1973)
Degree Days  
Heating Degree Days 2    
Growing Degree Days 13 (Base 50)    
Moisture  
Dew Point 55 °F    
Average Humidity 88    
Maximum Humidity 100    
Minimum Humidity 57    
Precipitation  
Precipitation 0.00 in - - ()
Sea Level Pressure  
Sea Level Pressure 30.25 in    
Wind  
Wind Speed 5 mph (South)    
Max Wind Speed 9 mph    
Max Gust Speed -    
Visibility 4 miles    
Events Fog    
Averages and records for this station are not official NWS values.
T = Trace of Precipitation, MM = Missing Value Source: NWS Daily Summary

Daily Weather History Graph

Daily Weather History Graph

Search for Another Location

Airport or City:

Astronomy

Jul. 23, 2018 Rise Set
Actual Time 4:38 AM AKDT 9:06 PM AKDT
Civil Twilight 3:48 AM AKDT 9:57 PM AKDT
Nautical Twilight 2:27 AM AKDT 11:16 PM AKDT
Astronomical Twilight Sun does not set Sun does not set
Moon 6:00 PM AKDT (7/23) 1:33 AM AKDT (7/23)
Length of Visible Light 18h 08m
Length of Day
16h 28m
Waxing Gibbous, 86% of the Moon is Illuminated
Jul 23
Waxing Gibbous
Jul 27
Full
Aug 4
Last Quarter
Aug 11
New
Aug 17
First Quarter

Hourly Weather History & Observations

Time (AKDT) Temp. Dew Point Humidity Pressure Visibility Wind Dir Wind Speed Gust Speed Precip Events Conditions
12:05 AM 55.9 °F 55.0 °F 97% 30.27 in 0.8 mi SSE 5.8 mph - N/A   Mist
12:53 AM 55.9 °F 55.0 °F 97% 30.27 in 0.5 mi SSE 4.6 mph - N/A Fog Fog
1:26 AM 55.0 °F 54.0 °F 96% 30.26 in 0.2 mi SE 5.8 mph - N/A Fog Fog
1:53 AM 55.0 °F 54.0 °F 96% 30.27 in 0.2 mi South 3.5 mph - N/A Fog Fog
2:21 AM 55.0 °F 54.0 °F 96% 30.26 in 0.2 mi South 3.5 mph - N/A Fog Fog
2:28 AM 54.0 °F 54.0 °F 100% 30.26 in 0.2 mi South 4.6 mph - N/A Fog Fog
2:53 AM 55.0 °F 54.0 °F 96% 30.26 in 0.2 mi Variable 3.5 mph - N/A Fog Fog
3:00 AM 55.0 °F 54.0 °F 96% 30.26 in 0.2 mi SSE 3.5 mph - N/A Fog Fog
3:19 AM 55.0 °F 54.0 °F 96% 30.26 in 0.2 mi SE 4.6 mph - N/A Fog Fog
3:36 AM 55.0 °F 54.0 °F 96% 30.26 in 0.2 mi SSE 3.5 mph - N/A Fog Fog
3:45 AM 55.0 °F 54.0 °F 96% 30.26 in 0.2 mi SSE 3.5 mph - N/A Fog Fog
3:53 AM 55.0 °F 54.0 °F 96% 30.27 in 0.2 mi SE 4.6 mph - N/A Fog Fog
4:43 AM 55.0 °F 54.0 °F 96% 30.26 in 0.5 mi SSE 4.6 mph - N/A Fog Fog
4:53 AM 55.0 °F 54.0 °F 96% 30.27 in 0.2 mi SSE 4.6 mph - N/A Fog Fog
5:53 AM 54.0 °F 53.1 °F 97% 30.27 in 0.5 mi SSE 5.8 mph - N/A Fog Fog
5:59 AM 55.4 °F 53.6 °F 94% 30.27 in 0.5 mi SE 4.6 mph - N/A Fog Fog
6:44 AM 53.6 °F 53.6 °F 100% 30.27 in 0.5 mi SSE 3.5 mph - N/A Fog Fog
6:45 AM 53.6 °F 53.6 °F 100% 30.27 in 0.5 mi SE 3.5 mph - N/A Fog Fog
6:53 AM 53.6 °F 53.6 °F 100% 30.28 in 0.5 mi South 3.5 mph - N/A Fog Fog
7:53 AM 55.4 °F 53.6 °F 94% 30.28 in 0.5 mi Calm Calm - N/A Fog Fog
8:06 AM 55.0 °F 54.0 °F 96% 30.28 in 2.0 mi Calm Calm - N/A   Overcast
8:13 AM 55.0 °F 54.0 °F 96% 30.28 in 0.5 mi Calm Calm - N/A Fog Fog
8:50 AM 55.4 °F 53.6 °F 94% 30.28 in 2.0 mi Calm Calm - N/A   Overcast
8:53 AM 55.9 °F 54.0 °F 93% 30.28 in 2.0 mi Calm Calm - N/A   Overcast
9:53 AM 57.2 °F 55.4 °F 94% 30.28 in 2.0 mi North 4.6 mph - N/A   Overcast
10:39 AM 60.8 °F 55.4 °F 82% 30.26 in 4.0 mi North 5.8 mph - N/A   Haze
10:53 AM 60.8 °F 55.4 °F 82% 30.27 in 10.0 mi North 6.9 mph - N/A   Scattered Clouds
11:53 AM 62.6 °F 57.2 °F 82% 30.26 in 10.0 mi NNW 9.2 mph - N/A   Clear
12:53 PM 66.2 °F 57.2 °F 73% 30.24 in 10.0 mi NW 8.1 mph - N/A   Clear
1:53 PM 69.8 °F 57.2 °F 64% 30.23 in 10.0 mi NNW 8.1 mph - N/A   Clear
2:53 PM 70.0 °F 57.9 °F 65% 30.22 in 10.0 mi NW 8.1 mph - N/A   Clear
3:53 PM 72.0 °F 57.9 °F 61% 30.20 in 10.0 mi NW 9.2 mph - N/A   Clear
4:53 PM 73.4 °F 57.2 °F 57% 30.19 in 10.0 mi NW 8.1 mph - N/A   Clear
5:53 PM 69.8 °F 57.2 °F 64% 30.18 in 10.0 mi NW 8.1 mph - N/A   Clear
6:53 PM 69.8 °F 57.2 °F 64% 30.17 in 10.0 mi WNW 5.8 mph - N/A   Clear
7:53 PM 66.9 °F 59.0 °F 76% 30.17 in 10.0 mi NNW 4.6 mph - N/A   Clear
8:53 PM 64.0 °F 57.9 °F 80% 30.18 in 10.0 mi Calm Calm - N/A   Clear
9:53 PM 59.0 °F 55.0 °F 87% 30.19 in 10.0 mi Calm Calm - N/A   Clear
10:53 PM 59.0 °F 55.9 °F 90% 30.19 in 10.0 mi NW 3.5 mph - N/A   Clear
11:53 PM 64.0 °F 55.0 °F 73% 30.19 in 10.0 mi WNW 5.8 mph - N/A   Clear